| time (UTC) | temp F | wind direction | speed MPH | gust MPH | rain 1hr in | rain 24hr in | rain mn in | humidity % | barometer mb |
| 20260506095549 | 58 | 28 | 7.0 | 13.0 | 0.00 | 0.00 | 0.00 | 71 | 1009.7 |
| 20260506095037 | 58 | 28 | 7.0 | 18.0 | 0.00 | 0.00 | 0.00 | 71 | 1009.7 |
| 20260506094525 | 57 | 337 | 8.0 | 18.0 | 0.00 | 0.00 | 0.00 | 72 | 1009.7 |
| 20260506094032 | 57 | 350 | 9.0 | 14.0 | 0.00 | 0.00 | 0.00 | 72 | 1009.7 |
| 20260506093540 | 57 | 321 | 7.0 | 14.0 | 0.00 | 0.00 | 0.00 | 73 | 1009.7 |
| 20260506093024 | 57 | 44 | 7.0 | 14.0 | 0.00 | 0.00 | 0.00 | 74 | 1009.7 |
| 20260506092533 | 56 | 350 | 6.0 | 15.0 | 0.00 | 0.00 | 0.00 | 76 | 1009.6 |
| 20260506092041 | 56 | 348 | 9.0 | 17.0 | 0.00 | 0.00 | 0.00 | 76 | 1009.6 |
| 20260506091529 | 56 | 325 | 9.0 | 17.0 | 0.00 | 0.00 | 0.00 | 76 | 1009.6 |
| 20260506091052 | 56 | 42 | 6.0 | 16.0 | 0.00 | 0.00 | 0.00 | 77 | 1009.6 |
| 20260506090540 | 56 | 329 | 9.0 | 16.0 | 0.00 | 0.00 | 0.00 | 75 | 1009.6 |
| 20260506090041 | 56 | 350 | 5.0 | 16.0 | 0.00 | 0.00 | 0.00 | 77 | 1009.6 |
| 20260506085549 | 56 | 11 | 9.0 | 16.0 | 0.00 | 0.00 | 0.00 | 76 | 1009.5 |
| 20260506085036 | 55 | 30 | 7.0 | 15.0 | 0.00 | 0.00 | 0.00 | 79 | 1009.5 |
| 20260506084540 | 55 | 18 | 10.0 | 19.0 | 0.00 | 0.00 | 0.00 | 77 | 1009.5 |
| 20260506084028 | 56 | 9 | 9.0 | 17.0 | 0.00 | 0.00 | 0.00 | 77 | 1009.4 |
| 20260506083537 | 56 | 344 | 10.0 | 17.0 | 0.00 | 0.00 | 0.00 | 78 | 1009.3 |
| 20260506083025 | 55 | 322 | 6.0 | 13.0 | 0.00 | 0.00 | 0.00 | 80 | 1009.3 |
| 20260506082533 | 55 | 348 | 6.0 | 16.0 | 0.00 | 0.00 | 0.00 | 81 | 1009.4 |
| 20260506082037 | 55 | 5 | 8.0 | 16.0 | 0.00 | 0.00 | 0.00 | 81 | 1009.4 |
| 20260506081525 | 55 | 32 | 9.0 | 15.0 | 0.00 | 0.00 | 0.00 | 81 | 1009.5 |
| 20260506081054 | 55 | 5 | 9.0 | 15.0 | 0.00 | 0.00 | 0.00 | 82 | 1009.4 |
| 20260506080521 | 54 | 360 | 6.0 | 16.0 | 0.00 | 0.00 | 0.00 | 83 | 1009.4 |
| 20260506073028 | 53 | 348 | 7.0 | 16.0 | 0.00 | 0.00 | 0.00 | 84 | 1009.3 |
| 20260506072537 | 53 | 327 | 8.0 | 15.0 | 0.00 | 0.00 | 0.00 | 84 | 1009.3 |
| 20260506072025 | 53 | 34 | 6.0 | 16.0 | 0.00 | 0.00 | 0.00 | 85 | 1009.2 |
| 20260506071531 | 53 | 313 | 10.0 | 16.0 | 0.00 | 0.00 | 0.00 | 85 | 1009.2 |
| 20260506071038 | 52 | 13 | 7.0 | 15.0 | 0.00 | 0.00 | 0.00 | 85 | 1009.2 |
| 20260506070528 | 52 | 13 | 8.0 | 18.0 | 0.00 | 0.00 | 0.00 | 84 | 1009.2 |
| 20260506062038 | 52 | 46 | 6.0 | 13.0 | 0.00 | 0.00 | 0.00 | 84 | 1009.0 |
| 20260506061528 | 52 | 333 | 8.0 | 15.0 | 0.00 | 0.00 | 0.00 | 84 | 1009.0 |
| 20260506061035 | 52 | 349 | 7.0 | 15.0 | 0.00 | 0.00 | 0.00 | 84 | 1009.0 |
| 20260506060525 | 52 | 13 | 5.0 | 12.0 | 0.00 | 0.00 | 0.00 | 84 | 1009.0 |
| 20260506051021 | 51 | 350 | 6.0 | 13.0 | 0.00 | 0.00 | 0.00 | 85 | 1009.0 |
| 20260506050530 | 52 | 5 | 4.0 | 12.0 | 0.00 | 0.00 | 0.00 | 84 | 1008.9 |
| 20260506045024 | 51 | 329 | 7.0 | 16.0 | 0.00 | 0.00 | 0.00 | 82 | 1009.0 |
| 20260506044532 | 51 | 9 | 6.0 | 14.0 | 0.00 | 0.00 | 0.00 | 82 | 1009.0 |
| 20260506044021 | 51 | 350 | 8.0 | 14.0 | 0.00 | 0.00 | 0.00 | 82 | 1009.0 |
| 20260506043530 | 51 | 15 | 5.0 | 12.0 | 0.00 | 0.00 | 0.00 | 82 | 1009.1 |
| 20260506043035 | 51 | 336 | 5.0 | 14.0 | 0.00 | 0.00 | 0.00 | 82 | 1009.0 |
| 20260506042524 | 51 | 355 | 7.0 | 14.0 | 0.00 | 0.00 | 0.00 | 82 | 1009.1 |
| 20260506042033 | 51 | 351 | 5.0 | 12.0 | 0.00 | 0.00 | 0.00 | 82 | 1009.1 |
| 20260506041542 | 51 | 350 | 6.0 | 12.0 | 0.00 | 0.00 | 0.00 | 82 | 1009.0 |
| 20260506041029 | 51 | 11 | 3.0 | 12.0 | 0.00 | 0.00 | 0.00 | 82 | 1009.1 |
| 20260506040534 | 51 | 329 | 7.0 | 12.0 | 0.00 | 0.00 | 0.00 | 82 | 1009.1 |
| 20260506040036 | 51 | 5 | 6.0 | 11.0 | 0.00 | 0.00 | 0.00 | 83 | 1009.1 |
| 20260506035524 | 51 | 340 | 4.0 | 11.0 | 0.00 | 0.00 | 0.00 | 82 | 1009.0 |
| 20260506035033 | 51 | 342 | 7.0 | 12.0 | 0.00 | 0.00 | 0.00 | 82 | 1009.2 |
| 20260506034522 | 51 | 355 | 5.0 | 12.0 | 0.00 | 0.00 | 0.00 | 82 | 1009.1 |
| 20260506034026 | 51 | 355 | 5.0 | 15.0 | 0.00 | 0.00 | 0.00 | 82 | 1009.2 |
| 20260506033535 | 51 | 5 | 7.0 | 15.0 | 0.00 | 0.00 | 0.00 | 82 | 1009.1 |
| 20260506033024 | 51 | 345 | 6.0 | 13.0 | 0.00 | 0.00 | 0.00 | 82 | 1009.2 |
| 20260506032533 | 51 | 5 | 6.0 | 13.0 | 0.00 | 0.00 | 0.00 | 82 | 1009.3 |
| 20260506032021 | 51 | 346 | 6.0 | 11.0 | 0.00 | 0.00 | 0.00 | 82 | 1009.3 |
| 20260506031526 | 51 | 323 | 5.0 | 11.0 | 0.00 | 0.00 | 0.00 | 82 | 1009.3 |
| 20260506031036 | 51 | 50 | 4.0 | 11.0 | 0.00 | 0.00 | 0.00 | 82 | 1009.4 |
| 20260506030544 | 51 | 64 | 5.0 | 12.0 | 0.00 | 0.00 | 0.00 | 81 | 1009.4 |
| 20260506030026 | 51 | 41 | 4.0 | 12.0 | 0.00 | 0.00 | 0.00 | 81 | 1009.5 |
| 20260506025530 | 51 | 35 | 5.0 | 11.0 | 0.00 | 0.00 | 0.00 | 80 | 1009.5 |
| 20260506025039 | 51 | 347 | 4.0 | 10.0 | 0.00 | 0.00 | 0.00 | 79 | 1009.5 |
| 20260506024548 | 51 | 17 | 4.0 | 11.0 | 0.00 | 0.00 | 0.00 | 78 | 1009.5 |
| 20260506024034 | 51 | 360 | 5.0 | 11.0 | 0.00 | 0.00 | 0.00 | 78 | 1009.5 |
| 20260506023523 | 51 | 53 | 5.0 | 14.0 | 0.00 | 0.00 | 0.00 | 78 | 1009.6 |
| 20260506023028 | 51 | 325 | 4.0 | 13.0 | 0.00 | 0.00 | 0.00 | 78 | 1009.5 |
| 20260506022536 | 50 | 336 | 6.0 | 13.0 | 0.00 | 0.00 | 0.00 | 79 | 1009.6 |
| 20260506022024 | 50 | 16 | 3.0 | 9.0 | 0.00 | 0.00 | 0.00 | 80 | 1009.7 |
| 20260506021534 | 50 | 346 | 4.0 | 9.0 | 0.00 | 0.00 | 0.00 | 81 | 1009.7 |
| 20260506021022 | 50 | 343 | 4.0 | 12.0 | 0.00 | 0.00 | 0.00 | 81 | 1009.7 |
| 20260506020527 | 50 | 5 | 5.0 | 12.0 | 0.00 | 0.00 | 0.00 | 82 | 1009.7 |
| 20260506020050 | 50 | 5 | 3.0 | 8.0 | 0.00 | 0.00 | 0.00 | 82 | 1009.8 |
| 20260506015538 | 49 | 54 | 3.0 | 9.0 | 0.00 | 0.00 | 0.00 | 82 | 1009.8 |
| 20260506015027 | 50 | 10 | 4.0 | 9.0 | 0.00 | 0.00 | 0.00 | 81 | 1009.8 |
| 20260506014531 | 49 | 19 | 4.0 | 9.0 | 0.00 | 0.00 | 0.00 | 81 | 1009.8 |
| 20260506014039 | 50 | 340 | 4.0 | 9.0 | 0.00 | 0.00 | 0.00 | 82 | 1009.8 |
| 20260506013528 | 50 | 9 | 3.0 | 9.0 | 0.00 | 0.00 | 0.00 | 81 | 1009.8 |
| 20260506013036 | 50 | 13 | 3.0 | 12.0 | 0.00 | 0.00 | 0.00 | 81 | 1009.8 |
| 20260506012525 | 50 | 9 | 4.0 | 12.0 | 0.00 | 0.00 | 0.00 | 80 | 1009.8 |
| 20260506012048 | 50 | 327 | 3.0 | 12.0 | 0.00 | 0.00 | 0.00 | 80 | 1009.8 |
| 20260506011536 | 50 | 348 | 4.0 | 11.0 | 0.00 | 0.00 | 0.00 | 80 | 1009.7 |
| 20260506011024 | 50 | 351 | 5.0 | 11.0 | 0.00 | 0.00 | 0.00 | 80 | 1009.7 |
| 20260506010533 | 50 | 5 | 3.0 | 11.0 | 0.00 | 0.00 | 0.00 | 79 | 1009.7 |
| 20260506010036 | 50 | 38 | 5.0 | 11.0 | 0.00 | 0.00 | 0.00 | 79 | 1009.8 |
| 20260506005521 | 50 | 338 | 3.0 | 8.0 | 0.00 | 0.00 | 0.00 | 79 | 1009.9 |
| 20260506005049 | 50 | 9 | 4.0 | 12.0 | 0.00 | 0.00 | 0.00 | 80 | 1009.9 |
| 20260506004537 | 50 | 26 | 6.0 | 12.0 | 0.00 | 0.00 | 0.00 | 80 | 1009.9 |
| 20260506004025 | 50 | 355 | 3.0 | 10.0 | 0.00 | 0.00 | 0.00 | 80 | 1010.0 |
| 20260506003550 | 50 | 22 | 4.0 | 10.0 | 0.00 | 0.00 | 0.00 | 79 | 1010.0 |
| 20260506003100 | 50 | 13 | 5.0 | 10.0 | 0.00 | 0.00 | 0.00 | 79 | 1010.1 |
| 20260506002529 | 50 | 9 | 4.0 | 13.0 | 0.00 | 0.00 | 0.00 | 79 | 1010.1 |
| 20260506002101 | 50 | 10 | 6.0 | 13.0 | 0.00 | 0.00 | 0.00 | 79 | 1010.2 |
| 20260506001524 | 50 | 31 | 5.0 | 10.0 | 0.00 | 0.00 | 0.00 | 80 | 1010.2 |
| 20260506001057 | 50 | 5 | 3.0 | 10.0 | 0.00 | 0.00 | 0.00 | 80 | 1010.3 |
| 20260506000526 | 50 | 17 | 4.0 | 11.0 | 0.00 | 0.00 | 0.00 | 80 | 1010.3 |
| 20260506000029 | 50 | 11 | 5.0 | 12.0 | 0.00 | 0.00 | 0.00 | 80 | 1010.4 |
| 20260505235538 | 50 | 339 | 4.0 | 13.0 | 0.00 | 0.00 | 0.00 | 79 | 1010.4 |
| 20260505235042 | 50 | 19 | 4.0 | 13.0 | 0.00 | 0.00 | 0.00 | 79 | 1010.4 |
| 20260505234530 | 49 | 360 | 3.0 | 11.0 | 0.00 | 0.00 | 0.00 | 79 | 1010.4 |
| 20260505234039 | 49 | 331 | 5.0 | 11.0 | 0.00 | 0.00 | 0.00 | 79 | 1010.5 |
| 20260505233529 | 49 | 348 | 3.0 | 10.0 | 0.00 | 0.00 | 0.00 | 79 | 1010.5 |
| 20260505233033 | 49 | 355 | 4.0 | 10.0 | 0.00 | 0.00 | 0.00 | 79 | 1010.5 |
| 20260505232522 | 49 | 345 | 5.0 | 12.0 | 0.00 | 0.00 | 0.00 | 78 | 1010.6 |
| 20260505232031 | 49 | 338 | 4.0 | 12.0 | 0.00 | 0.00 | 0.00 | 78 | 1010.6 |
| 20260505231520 | 49 | 344 | 3.0 | 9.0 | 0.00 | 0.00 | 0.00 | 78 | 1010.6 |
| 20260505231028 | 50 | 340 | 5.0 | 11.0 | 0.00 | 0.00 | 0.00 | 78 | 1010.7 |
| 20260505230533 | 50 | 44 | 3.0 | 11.0 | 0.00 | 0.00 | 0.00 | 78 | 1010.6 |
| 20260505230059 | 50 | 339 | 5.0 | 11.0 | 0.00 | 0.00 | 0.00 | 78 | 1010.7 |
| 20260505225547 | 50 | 5 | 3.0 | 14.0 | 0.00 | 0.00 | 0.00 | 78 | 1010.7 |
| 20260505225034 | 50 | 355 | 5.0 | 14.0 | 0.00 | 0.00 | 0.00 | 78 | 1010.7 |
| 20260505224523 | 50 | 24 | 3.0 | 11.0 | 0.00 | 0.00 | 0.00 | 77 | 1010.7 |
| 20260505224027 | 50 | 360 | 4.0 | 11.0 | 0.00 | 0.00 | 0.00 | 78 | 1010.7 |
| 20260505223535 | 50 | 11 | 4.0 | 10.0 | 0.00 | 0.00 | 0.00 | 77 | 1010.7 |
| 20260505223025 | 50 | 344 | 4.0 | 14.0 | 0.00 | 0.00 | 0.00 | 77 | 1010.8 |
| 20260505222533 | 50 | 339 | 3.0 | 14.0 | 0.00 | 0.00 | 0.00 | 77 | 1010.8 |
| 20260505222023 | 50 | 350 | 4.0 | 12.0 | 0.00 | 0.00 | 0.00 | 77 | 1010.8 |
| 20260505221528 | 50 | 355 | 2.0 | 12.0 | 0.00 | 0.00 | 0.00 | 77 | 1010.9 |
| 20260505221034 | 50 | 5 | 3.0 | 10.0 | 0.00 | 0.00 | 0.00 | 77 | 1010.9 |
| 20260505220524 | 50 | 5 | 3.0 | 10.0 | 0.00 | 0.00 | 0.00 | 76 | 1010.9 |
| 20260505220024 | 50 | 14 | 4.0 | 12.0 | 0.00 | 0.00 | 0.00 | 76 | 1011.0 |
| 20260505215549 | 50 | 5 | 5.0 | 12.0 | 0.00 | 0.00 | 0.00 | 76 | 1011.0 |
| 20260505215033 | 50 | 55 | 4.0 | 12.0 | 0.00 | 0.00 | 0.00 | 76 | 1011.0 |
| 20260505214521 | 50 | 32 | 6.0 | 12.0 | 0.00 | 0.00 | 0.00 | 76 | 1011.0 |
| 20260505214030 | 50 | 59 | 4.0 | 10.0 | 0.00 | 0.00 | 0.00 | 76 | 1011.1 |
| 20260505213539 | 50 | 55 | 3.0 | 10.0 | 0.00 | 0.00 | 0.00 | 76 | 1011.0 |
| 20260505213023 | 51 | 19 | 4.0 | 13.0 | 0.00 | 0.00 | 0.00 | 76 | 1011.0 |
| 20260505212532 | 51 | 9 | 5.0 | 13.0 | 0.00 | 0.00 | 0.00 | 75 | 1011.1 |
| 20260505212039 | 51 | 36 | 5.0 | 12.0 | 0.00 | 0.00 | 0.00 | 75 | 1011.1 |
| 20260505211528 | 51 | 360 | 5.0 | 12.0 | 0.00 | 0.00 | 0.00 | 75 | 1011.1 |
| 20260505211037 | 51 | 32 | 4.0 | 9.0 | 0.00 | 0.00 | 0.00 | 76 | 1011.1 |
| 20260505210522 | 51 | 360 | 3.0 | 11.0 | 0.00 | 0.00 | 0.00 | 75 | 1011.1 |
| 20260505210046 | 51 | 9 | 5.0 | 11.0 | 0.00 | 0.00 | 0.00 | 75 | 1011.2 |
| 20260505205558 | 51 | 25 | 4.0 | 10.0 | 0.00 | 0.00 | 0.00 | 75 | 1011.2 |
| 20260505205046 | 51 | 360 | 4.0 | 13.0 | 0.00 | 0.00 | 0.00 | 76 | 1011.2 |
| 20260505204551 | 51 | 14 | 3.0 | 13.0 | 0.00 | 0.00 | 0.00 | 76 | 1011.2 |
| 20260505204019 | 51 | 40 | 5.0 | 14.0 | 0.00 | 0.00 | 0.00 | 75 | 1011.2 |
| 20260505203528 | 51 | 311 | 6.0 | 12.0 | 0.00 | 0.00 | 0.00 | 75 | 1011.1 |
| 20260505203037 | 52 | 16 | 3.0 | 10.0 | 0.00 | 0.00 | 0.00 | 75 | 1011.1 |
| 20260505202541 | 52 | 355 | 4.0 | 10.0 | 0.00 | 0.00 | 0.00 | 75 | 1011.1 |
| 20260505202028 | 52 | 53 | 3.0 | 9.0 | 0.00 | 0.00 | 0.00 | 75 | 1011.1 |
| 20260505201537 | 52 | 44 | 5.0 | 9.0 | 0.00 | 0.00 | 0.00 | 76 | 1011.1 |
| 20260505201045 | 52 | 5 | 3.0 | 13.0 | 0.00 | 0.00 | 0.00 | 77 | 1011.0 |
| 20260505200549 | 52 | 338 | 4.0 | 13.0 | 0.00 | 0.00 | 0.00 | 77 | 1011.0 |
| 20260505200029 | 52 | 360 | 7.0 | 13.0 | 0.00 | 0.00 | 0.00 | 77 | 1011.0 |
| 20260505195519 | 52 | 325 | 5.0 | 11.0 | 0.00 | 0.00 | 0.00 | 77 | 1010.9 |
| 20260505195028 | 52 | 9 | 4.0 | 13.0 | 0.00 | 0.00 | 0.00 | 76 | 1010.8 |
| 20260505194533 | 53 | 9 | 4.0 | 13.0 | 0.00 | 0.00 | 0.00 | 77 | 1010.8 |
| 20260505194043 | 53 | 5 | 6.0 | 13.0 | 0.00 | 0.00 | 0.00 | 76 | 1010.8 |
| 20260505193531 | 53 | 338 | 4.0 | 13.0 | 0.00 | 0.00 | 0.00 | 76 | 1010.7 |
| 20260505193019 | 53 | 341 | 4.0 | 16.0 | 0.00 | 0.00 | 0.00 | 76 | 1010.6 |
| 20260505192526 | 53 | 348 | 4.0 | 16.0 | 0.00 | 0.00 | 0.00 | 76 | 1010.6 |
| 20260505192028 | 53 | 348 | 4.0 | 13.0 | 0.00 | 0.00 | 0.00 | 76 | 1010.6 |
| 20260505191556 | 53 | 5 | 6.0 | 12.0 | 0.00 | 0.00 | 0.00 | 76 | 1010.5 |
| 20260505191020 | 53 | 5 | 6.0 | 12.0 | 0.00 | 0.00 | 0.00 | 77 | 1010.5 |
| 20260505190548 | 53 | 337 | 5.0 | 14.0 | 0.00 | 0.00 | 0.00 | 77 | 1010.4 |
| 20260505190023 | 53 | 13 | 8.0 | 16.0 | 0.00 | 0.00 | 0.00 | 77 | 1010.4 |
| 20260505185531 | 54 | 27 | 7.0 | 16.0 | 0.00 | 0.00 | 0.00 | 77 | 1010.3 |
| 20260505185037 | 54 | 9 | 6.0 | 12.0 | 0.00 | 0.00 | 0.00 | 77 | 1010.3 |
| 20260505184524 | 54 | 47 | 5.0 | 17.0 | 0.00 | 0.00 | 0.00 | 76 | 1010.3 |
| 20260505184029 | 54 | 351 | 8.0 | 17.0 | 0.00 | 0.00 | 0.00 | 76 | 1010.2 |
| 20260505183536 | 54 | 360 | 6.0 | 16.0 | 0.00 | 0.00 | 0.00 | 76 | 1010.2 |
| 20260505183044 | 54 | 55 | 6.0 | 14.0 | 0.00 | 0.00 | 0.00 | 76 | 1010.3 |
| 20260505182533 | 54 | 311 | 6.0 | 14.0 | 0.00 | 0.00 | 0.00 | 76 | 1010.1 |
| 20260505182038 | 54 | 45 | 8.0 | 15.0 | 0.00 | 0.00 | 0.00 | 75 | 1010.1 |
| 20260505181520 | 54 | 28 | 10.0 | 15.0 | 0.00 | 0.00 | 0.00 | 75 | 1010.1 |
| 20260505181027 | 55 | 5 | 8.0 | 19.0 | 0.00 | 0.00 | 0.00 | 75 | 1010.2 |
| 20260505180534 | 54 | 17 | 8.0 | 19.0 | 0.00 | 0.00 | 0.00 | 75 | 1010.1 |
| 20260505180059 | 55 | 13 | 10.0 | 19.0 | 0.00 | 0.00 | 0.00 | 74 | 1010.2 |
| 20260505175544 | 55 | 61 | 8.0 | 17.0 | 0.00 | 0.00 | 0.00 | 74 | 1010.2 |
| 20260505175047 | 55 | 5 | 9.0 | 17.0 | 0.00 | 0.00 | 0.00 | 74 | 1010.2 |
| 20260505174535 | 55 | 15 | 11.0 | 17.0 | 0.00 | 0.00 | 0.00 | 73 | 1010.1 |
| 20260505174022 | 55 | 360 | 8.0 | 17.0 | 0.00 | 0.00 | 0.00 | 73 | 1010.2 |
| 20260505173526 | 56 | 348 | 7.0 | 19.0 | 0.00 | 0.00 | 0.00 | 74 | 1010.2 |
| 20260505173056 | 55 | 22 | 10.0 | 20.0 | 0.00 | 0.00 | 0.00 | 74 | 1010.2 |
| 20260505172523 | 55 | 347 | 10.0 | 20.0 | 0.00 | 0.00 | 0.00 | 73 | 1010.2 |
| 20260505172028 | 56 | 15 | 10.0 | 19.0 | 0.00 | 0.00 | 0.00 | 73 | 1010.2 |
| 20260505171535 | 56 | 355 | 8.0 | 16.0 | 0.00 | 0.00 | 0.00 | 73 | 1010.3 |
| 20260505171020 | 56 | 13 | 8.0 | 19.0 | 0.00 | 0.00 | 0.00 | 73 | 1010.3 |
| 20260505170549 | 56 | 11 | 6.0 | 19.0 | 0.00 | 0.00 | 0.00 | 74 | 1010.3 |
| 20260505170027 | 56 | 346 | 8.0 | 17.0 | 0.00 | 0.00 | 0.00 | 74 | 1010.3 |
| 20260505165559 | 56 | 355 | 9.0 | 17.0 | 0.00 | 0.00 | 0.00 | 74 | 1010.4 |
| 20260505165019 | 56 | 22 | 11.0 | 16.0 | 0.00 | 0.00 | 0.00 | 73 | 1010.4 |
| 20260505164548 | 56 | 57 | 7.0 | 15.0 | 0.00 | 0.00 | 0.00 | 73 | 1010.4 |
| 20260505164036 | 57 | 355 | 9.0 | 18.0 | 0.00 | 0.00 | 0.00 | 71 | 1010.4 |
| 20260505163525 | 56 | 360 | 9.0 | 19.0 | 0.00 | 0.00 | 0.00 | 72 | 1010.3 |
| 20260505163030 | 57 | 5 | 9.0 | 19.0 | 0.00 | 0.00 | 0.00 | 72 | 1010.3 |
| 20260505162520 | 56 | 9 | 10.0 | 19.0 | 0.00 | 0.00 | 0.00 | 72 | 1010.3 |
| 20260505162029 | 56 | 355 | 10.0 | 18.0 | 0.00 | 0.00 | 0.00 | 73 | 1010.4 |
| 20260505161519 | 55 | 18 | 12.0 | 20.0 | 0.00 | 0.00 | 0.00 | 73 | 1010.4 |
| 20260505161029 | 56 | 338 | 12.0 | 20.0 | 0.00 | 0.00 | 0.00 | 72 | 1010.4 |
| 20260505160557 | 56 | 5 | 9.0 | 21.0 | 0.00 | 0.00 | 0.00 | 72 | 1010.4 |
| 20260505153024 | 56 | 349 | 10.0 | 20.0 | 0.00 | 0.00 | 0.00 | 73 | 1010.3 |
| 20260505152532 | 56 | 337 | 11.0 | 20.0 | 0.00 | 0.00 | 0.00 | 70 | 1010.4 |
| 20260505152020 | 57 | 9 | 9.0 | 17.0 | 0.00 | 0.00 | 0.00 | 70 | 1010.4 |
| 20260505151524 | 58 | 16 | 9.0 | 15.0 | 0.00 | 0.00 | 0.00 | 70 | 1010.5 |
| 20260505151051 | 58 | 347 | 6.0 | 15.0 | 0.00 | 0.00 | 0.00 | 71 | 1010.5 |
| 20260505150518 | 58 | 360 | 8.0 | 23.0 | 0.00 | 0.00 | 0.00 | 70 | 1010.5 |
| 20260505140527 | 58 | 355 | 7.0 | 18.0 | 0.00 | 0.00 | 0.00 | 69 | 1010.6 |
| 20260505125035 | 58 | 348 | 8.0 | 19.0 | 0.00 | 0.00 | 0.00 | 69 | 1010.9 |
| 20260505124524 | 58 | 325 | 8.0 | 19.0 | 0.00 | 0.00 | 0.00 | 69 | 1010.9 |
| 20260505124029 | 58 | 333 | 11.0 | 19.0 | 0.00 | 0.00 | 0.00 | 67 | 1010.9 |
| 20260505123537 | 59 | 340 | 11.0 | 18.0 | 0.00 | 0.00 | 0.00 | 67 | 1011.0 |
| 20260505123042 | 59 | 355 | 9.0 | 18.0 | 0.00 | 0.00 | 0.00 | 68 | 1011.0 |
| 20260505122529 | 59 | 320 | 6.0 | 18.0 | 0.00 | 0.00 | 0.00 | 68 | 1010.9 |
| 20260505122057 | 58 | 34 | 12.0 | 18.0 | 0.00 | 0.00 | 0.00 | 67 | 1011.0 |
| 20260505121525 | 59 | 5 | 8.0 | 15.0 | 0.00 | 0.00 | 0.00 | 67 | 1011.0 |
| 20260505121033 | 59 | 325 | 7.0 | 18.0 | 0.00 | 0.00 | 0.00 | 68 | 1010.9 |
| 20260505120522 | 58 | 40 | 10.0 | 18.0 | 0.00 | 0.00 | 0.00 | 68 | 1010.9 |
| 20260505120041 | 58 | 34 | 8.0 | 19.0 | 0.00 | 0.00 | 0.00 | 69 | 1011.0 |
| 20260505115545 | 58 | 5 | 9.0 | 19.0 | 0.00 | 0.00 | 0.00 | 70 | 1011.1 |
| 20260505115033 | 58 | 5 | 10.0 | 16.0 | 0.00 | 0.00 | 0.00 | 70 | 1011.0 |
| 20260505114543 | 58 | 11 | 8.0 | 17.0 | 0.00 | 0.00 | 0.00 | 70 | 1011.0 |
| 20260505114029 | 58 | 349 | 9.0 | 19.0 | 0.00 | 0.00 | 0.00 | 70 | 1011.0 |
| 20260505113554 | 58 | 32 | 8.0 | 16.0 | 0.00 | 0.00 | 0.00 | 70 | 1011.2 |
| 20260505113021 | 58 | 297 | 10.0 | 16.0 | 0.00 | 0.00 | 0.00 | 69 | 1011.1 |
| 20260505112532 | 59 | 311 | 9.0 | 16.0 | 0.00 | 0.00 | 0.00 | 69 | 1011.2 |
| 20260505112039 | 58 | 36 | 9.0 | 17.0 | 0.00 | 0.00 | 0.00 | 69 | 1011.3 |
| 20260505111524 | 58 | 29 | 10.0 | 20.0 | 0.00 | 0.00 | 0.00 | 69 | 1011.2 |
| 20260505111030 | 59 | 16 | 13.0 | 20.0 | 0.00 | 0.00 | 0.00 | 66 | 1011.3 |
| 20260505110519 | 58 | 321 | 8.0 | 17.0 | 0.00 | 0.00 | 0.00 | 70 | 1011.4 |
| 20260505102024 | 58 | 17 | 9.0 | 18.0 | 0.00 | 0.00 | 0.00 | 67 | 1011.7 |
| 20260505101533 | 58 | 5 | 7.0 | 16.0 | 0.00 | 0.00 | 0.00 | 69 | 1011.7 |
| 20260505101052 | 58 | 26 | 9.0 | 16.0 | 0.00 | 0.00 | 0.00 | 68 | 1011.8 |
| 20260505100520 | 58 | 5 | 7.0 | 17.0 | 0.00 | 0.00 | 0.00 | 69 | 1011.7 |
| 20260505100042 | 58 | 26 | 8.0 | 15.0 | 0.00 | 0.00 | 0.00 | 70 | 1011.7 |